VK4HIT-13 Weather Reports


time (UTC)temp
C
wind
direction
speed
KPH
gust
KPH
rain 1hr
cm
rain 24hr
cm
rain mn
cm
humidity
%
barometer
mb
20260505140430 20 30 3.2 8.0 0.00 0.08 0.00 87 1018.0
20260505124930 20 20 4.8 8.0 0.00 0.08 0.08 85 1017.8
20260505124430 20 22 4.8 8.0 0.00 0.08 0.08 85 1017.8
20260505123930 20 26 4.8 8.0 0.00 0.08 0.08 85 1017.9
20260505123430 20 21 6.4 9.7 0.00 0.08 0.08 85 1017.7
20260505122930 20 24 6.4 9.7 0.00 0.08 0.08 85 1017.7
20260505122430 20 23 6.4 9.7 0.00 0.08 0.08 85 1017.6
20260505121930 20 24 6.4 12.9 0.00 0.08 0.08 85 1017.7
20260505121430 20 23 3.2 6.4 0.00 0.08 0.08 85 1017.7
20260505120930 20 24 1.6 4.8 0.00 0.08 0.08 85 1017.8
20260505120430 20 28 3.2 6.4 0.00 0.08 0.08 85 1018.0
20260505115930 20 28 3.2 8.0 0.00 0.08 0.08 85 1017.9
20260505115430 20 27 4.8 9.7 0.00 0.08 0.08 85 1017.6
20260505114930 20 26 3.2 8.0 0.00 0.08 0.08 85 1017.6
20260505114430 20 24 4.8 8.0 0.03 0.08 0.08 85 1017.5
20260505113930 20 32 6.4 8.0 0.03 0.08 0.08 85 1017.5
20260505113430 20 28 6.4 12.9 0.03 0.08 0.08 85 1017.6
20260505112930 20 32 6.4 12.9 0.03 0.08 0.08 85 1017.6
20260505112430 20 29 4.8 9.7 0.05 0.08 0.08 86 1017.9
20260505111930 20 30 4.8 9.7 0.05 0.08 0.08 86 1018.0
20260505111430 20 27 4.8 8.0 0.05 0.08 0.08 87 1017.8
20260505110930 20 28 1.6 8.0 0.05 0.08 0.08 88 1017.7
20260505110430 20 26 0.0 0.0 0.05 0.08 0.08 88 1017.8
20260505101930 21 24 4.8 11.3 0.00 0.03 0.03 80 1017.3
20260505101430 21 20 4.8 11.3 0.00 0.03 0.03 80 1017.1
20260505100930 21 22 4.8 11.3 0.00 0.03 0.03 80 1017.1
20260505100430 21 21 3.2 6.4 0.00 0.03 0.03 79 1017.0
20260505095930 21 21 3.2 8.0 0.00 0.03 0.03 79 1017.1
20260505095430 21 16 3.2 9.7 0.00 0.03 0.03 79 1017.1
20260505094930 21 22 3.2 8.0 0.00 0.03 0.03 79 1017.1
20260505094430 21 19 3.2 8.0 0.00 0.03 0.03 79 1016.9
20260505093930 21 22 3.2 8.0 0.00 0.03 0.03 79 1016.8
20260505093430 21 24 3.2 8.0 0.00 0.03 0.03 79 1017.0
20260505092930 21 18 3.2 8.0 0.00 0.03 0.03 79 1016.9
20260505092430 22 21 3.2 8.0 0.00 0.03 0.03 79 1017.0
20260505091930 22 19 1.6 8.0 0.00 0.03 0.03 79 1017.0
20260505091430 22 23 1.6 3.2 0.00 0.03 0.03 79 1016.9
20260505090930 22 17 1.6 6.4 0.00 0.03 0.03 78 1016.9
20260505090430 22 22 1.6 4.8 0.00 0.03 0.03 78 1016.8
20260505085930 22 19 1.6 4.8 0.00 0.03 0.03 78 1016.7
20260505085430 22 22 0.0 3.2 0.00 0.03 0.03 77 1016.7
20260505084930 22 22 0.0 0.0 0.00 0.03 0.03 76 1016.8
20260505084430 22 18 0.0 0.0 0.00 0.03 0.03 76 1016.7
20260505083930 22 17 0.0 3.2 0.00 0.03 0.03 76 1016.6
20260505083430 22 19 0.0 1.6 0.00 0.03 0.03 75 1016.5
20260505082930 22 13 0.0 1.6 0.00 0.03 0.03 75 1016.5
20260505082430 22 15 0.0 3.2 0.00 0.03 0.03 75 1016.4
20260505081930 23 13 0.0 3.2 0.00 0.03 0.03 74 1016.1
20260505081430 23 13 0.0 3.2 0.00 0.03 0.03 74 1016.1
20260505080930 23 16 0.0 3.2 0.00 0.03 0.03 73 1016.1
20260505080430 23 20 0.0 0.0 0.00 0.03 0.03 72 1016.1
20260505075930 23 14 1.6 4.8 0.00 0.03 0.03 72 1015.9
20260505075430 23 14 1.6 4.8 0.00 0.03 0.03 72 1015.8
20260505074930 23 19 1.6 4.8 0.00 0.03 0.03 71 1015.9
20260505074430 23 15 0.0 3.2 0.00 0.03 0.03 71 1015.9
20260505073930 23 17 0.0 3.2 0.00 0.03 0.03 70 1015.8
20260505073430 23 13 0.0 0.0 0.00 0.03 0.03 68 1015.9
20260505072930 23 9 0.0 0.0 0.00 0.03 0.03 67 1016.0
20260505072430 24 5 0.0 3.2 0.00 0.03 0.03 66 1015.8
20260505071930 24 63 0.0 0.0 0.00 0.03 0.03 65 1015.7
20260505071430 24 63 0.0 0.0 0.00 0.03 0.03 65 1015.6
20260505070930 24 63 0.0 0.0 0.00 0.03 0.03 64 1015.5
20260505070430 25 63 0.0 0.0 0.00 0.03 0.03 64 1015.4
20260505065930 25 63 0.0 0.0 0.00 0.03 0.03 64 1015.4
20260505065430 25 63 0.0 0.0 0.00 0.03 0.03 63 1015.4
20260505064930 25 64 0.0 0.0 0.00 0.03 0.03 63 1015.4
20260505064430 25 67 0.0 0.0 0.00 0.03 0.03 62 1015.4
20260505063930 25 64 0.0 0.0 0.00 0.03 0.03 62 1015.3
20260505063430 25 66 0.0 0.0 0.00 0.03 0.03 61 1015.4
20260505062930 25 63 0.0 1.6 0.00 0.03 0.03 61 1015.3
20260505062430 26 65 0.0 3.2 0.00 0.03 0.03 60 1015.2
20260505061930 26 21 0.0 3.2 0.00 0.03 0.03 59 1015.2
20260505061430 26 13 0.0 0.0 0.00 0.03 0.03 58 1015.2
20260505060930 26 0 0.0 0.0 0.00 0.03 0.03 58 1015.2
20260505060430 26 18 0.0 3.2 0.00 0.03 0.03 58 1015.1
20260505055930 26 69 0.0 1.6 0.00 0.03 0.03 58 1015.0
20260505055430 26 67 0.0 3.2 0.00 0.03 0.03 58 1015.0
20260505054931 26 60 0.0 4.8 0.00 0.03 0.03 57 1015.2
20260505054431 26 66 0.0 0.0 0.00 0.03 0.03 57 1015.2
20260505053931 26 26 0.0 0.0 0.00 0.03 0.03 59 1015.2
20260505053431 26 53 0.0 3.2 0.00 0.03 0.03 58 1015.1
20260505052931 26 69 1.6 3.2 0.00 0.03 0.03 59 1015.2
20260505052431 26 61 1.6 4.8 0.00 0.03 0.03 59 1015.3
20260505051931 26 65 0.0 4.8 0.00 0.03 0.03 59 1015.0
20260505051431 26 56 1.6 6.4 0.00 0.03 0.03 59 1014.9
20260505050931 26 59 3.2 6.4 0.00 0.03 0.03 60 1015.0
20260505050431 26 63 3.2 6.4 0.00 0.03 0.03 60 1015.0
20260505041431 26 63 1.6 6.4 0.00 0.03 0.03 60 1014.9
20260505040931 26 56 3.2 4.8 0.00 0.03 0.03 60 1014.8
20260505040431 26 56 3.2 9.7 0.00 0.03 0.03 59 1014.8
20260505035931 26 57 3.2 8.0 0.00 0.03 0.03 60 1014.9
20260505035431 26 59 3.2 12.9 0.00 0.03 0.03 57 1014.8
20260505034931 26 63 1.6 6.4 0.00 0.03 0.03 59 1014.5
20260505034431 26 46 3.2 4.8 0.00 0.03 0.03 59 1014.7
20260505033931 26 68 4.8 9.7 0.00 0.03 0.03 57 1014.8
20260505033431 26 67 4.8 12.9 0.00 0.03 0.03 57 1014.8
20260505032931 27 61 3.2 9.7 0.00 0.03 0.03 57 1014.7
20260505032431 27 15 3.2 8.0 0.00 0.03 0.03 57 1014.9
20260505031931 27 24 1.6 8.0 0.00 0.03 0.03 58 1014.8
20260505031431 27 69 1.6 8.0 0.00 0.03 0.03 57 1014.7
20260505030931 26 19 3.2 6.4 0.00 0.03 0.03 55 1014.7
20260505030431 26 36 3.2 9.7 0.00 0.03 0.03 56 1015.0
20260505025931 26 35 3.2 8.0 0.00 0.03 0.03 58 1015.1
20260505025431 26 59 1.6 8.0 0.00 0.03 0.03 57 1015.3
20260505024931 26 67 1.6 6.4 0.00 0.03 0.03 57 1015.3
20260505024431 26 40 1.6 4.8 0.00 0.03 0.03 58 1015.3
20260505023931 26 29 1.6 4.8 0.00 0.03 0.03 59 1015.5
20260505023431 26 36 1.6 4.8 0.00 0.03 0.03 58 1015.7
20260505022931 25 40 3.2 4.8 0.00 0.03 0.03 62 1015.7
20260505022431 25 39 3.2 8.0 0.00 0.03 0.03 62 1015.9
20260505021931 25 35 3.2 4.8 0.00 0.03 0.03 63 1016.0
20260505021431 25 46 3.2 8.0 0.00 0.03 0.03 63 1016.0
20260505020931 25 63 1.6 6.4 0.00 0.03 0.03 64 1016.0
20260505020431 25 68 1.6 4.8 0.00 0.03 0.03 64 1016.2
20260505015931 25 69 1.6 8.0 0.00 0.03 0.03 65 1016.3
20260505015431 25 55 0.0 6.4 0.00 0.03 0.03 67 1016.4
20260505014931 24 13 0.0 0.0 0.00 0.03 0.03 68 1016.4
20260505014431 24 48 0.0 0.0 0.00 0.03 0.03 66 1016.5
20260505013931 24 60 1.6 4.8 0.00 0.03 0.03 66 1016.7
20260505013431 24 58 1.6 4.8 0.00 0.03 0.03 68 1016.7
20260505012931 24 36 0.0 4.8 0.00 0.03 0.03 69 1016.8
20260505012431 24 62 0.0 3.2 0.00 0.03 0.03 69 1016.9
20260505011931 23 42 0.0 0.0 0.00 0.03 0.03 71 1017.0
20260505011431 23 69 0.0 0.0 0.00 0.03 0.03 72 1017.0
20260505010931 23 56 0.0 6.4 0.00 0.03 0.03 72 1017.0
20260505010431 23 63 1.6 1.6 0.00 0.03 0.03 72 1017.1
20260505005931 23 58 1.6 6.4 0.00 0.03 0.03 72 1017.1
20260505005431 23 67 1.6 6.4 0.00 0.03 0.03 74 1017.3
20260505004931 23 67 1.6 6.4 0.00 0.03 0.03 76 1017.5
20260505004431 22 60 0.0 4.8 0.00 0.03 0.03 76 1017.5
20260505003931 22 61 0.0 0.0 0.00 0.03 0.03 78 1017.6
20260505003431 22 74 0.0 4.8 0.00 0.03 0.03 78 1017.9
20260505002931 22 65 0.0 4.8 0.00 0.03 0.03 79 1018.0
20260505002431 22 52 0.0 4.8 0.00 0.03 0.03 78 1018.0
20260505001931 22 71 0.0 0.0 0.00 0.03 0.03 79 1018.0
20260505001431 21 50 0.0 0.0 0.00 0.03 0.03 81 1018.1
20260505000931 21 57 0.0 0.0 0.00 0.03 0.03 82 1017.9
20260505000431 21 49 0.0 0.0 0.00 0.03 0.03 83 1017.9
20260504235931 21 57 0.0 0.0 0.00 0.03 0.03 84 1018.0
20260504235431 20 55 0.0 0.0 0.00 0.03 0.03 86 1018.0
20260504234931 20 74 0.0 0.0 0.00 0.03 0.03 86 1018.1
20260504234431 20 53 0.0 0.0 0.00 0.03 0.03 87 1018.1
20260504233931 20 52 0.0 0.0 0.00 0.03 0.03 88 1018.2
20260504233431 20 70 0.0 0.0 0.00 0.03 0.03 89 1018.3
20260504232931 20 67 0.0 0.0 0.00 0.03 0.03 89 1018.3
20260504232431 20 71 0.0 1.6 0.00 0.03 0.03 89 1018.3
20260504231931 20 69 0.0 0.0 0.00 0.03 0.03 91 1018.4
20260504231431 19 66 0.0 0.0 0.00 0.03 0.03 93 1018.4
20260504230931 19 60 0.0 0.0 0.00 0.03 0.03 93 1018.3
20260504230431 19 71 0.0 0.0 0.00 0.03 0.03 95 1018.3
20260504225931 19 73 0.0 0.0 0.00 0.03 0.03 95 1018.3
20260504225431 18 65 0.0 0.0 0.00 0.03 0.03 95 1018.3
20260504224931 18 71 0.0 0.0 0.00 0.03 0.03 96 1018.4
20260504224431 18 68 0.0 0.0 0.00 0.03 0.03 95 1018.5
20260504223931 18 57 0.0 0.0 0.00 0.03 0.03 95 1018.4
20260504223431 18 74 0.0 0.0 0.00 0.03 0.03 96 1018.5
20260504222931 18 57 0.0 1.6 0.00 0.03 0.03 96 1018.4
20260504222431 18 67 0.0 0.0 0.00 0.03 0.03 96 1018.5
20260504221931 18 64 0.0 0.0 0.00 0.03 0.03 96 1018.3
20260504221431 18 74 0.0 0.0 0.00 0.03 0.03 96 1018.3
20260504220931 18 77 0.0 0.0 0.00 0.03 0.03 96 1018.3
20260504220431 18 77 0.0 0.0 0.00 0.03 0.03 96 1018.2
20260504215931 17 76 0.0 0.0 0.00 0.03 0.03 96 1018.3
20260504215431 17 72 0.0 0.0 0.00 0.03 0.03 95 1018.3
20260504214931 17 72 0.0 0.0 0.00 0.03 0.03 95 1018.3
20260504214431 17 77 0.0 0.0 0.00 0.03 0.03 95 1018.2
20260504213931 17 82 0.0 0.0 0.00 0.03 0.03 95 1018.2
20260504213431 17 88 0.0 0.0 0.00 0.03 0.03 95 1018.1
20260504212931 17 103 0.0 0.0 0.00 0.03 0.03 95 1018.0
20260504212431 17 105 0.0 0.0 0.00 0.03 0.03 95 1017.9
20260504211931 17 103 0.0 0.0 0.00 0.03 0.03 95 1017.8
20260504211431 17 86 0.0 0.0 0.00 0.03 0.03 95 1017.8
20260504210931 17 85 0.0 0.0 0.00 0.03 0.03 95 1017.8
20260504210431 17 85 0.0 0.0 0.00 0.03 0.03 95 1017.7
20260504205931 17 67 0.0 0.0 0.00 0.03 0.03 95 1017.7
20260504205431 17 84 0.0 0.0 0.00 0.03 0.03 95 1017.8
20260504204931 17 91 0.0 0.0 0.00 0.03 0.03 95 1017.6
20260504204431 17 92 0.0 0.0 0.00 0.03 0.03 95 1017.6
20260504203931 17 94 0.0 0.0 0.00 0.03 0.03 95 1017.6
20260504203431 17 98 0.0 0.0 0.00 0.03 0.03 95 1017.5
20260504202931 16 92 0.0 0.0 0.00 0.03 0.03 95 1017.4
20260504202431 16 92 0.0 0.0 0.00 0.03 0.03 95 1017.5
20260504201931 16 94 0.0 0.0 0.00 0.03 0.03 95 1017.6
20260504201431 16 96 0.0 0.0 0.00 0.03 0.03 95 1017.5
20260504200931 16 92 0.0 0.0 0.00 0.03 0.03 95 1017.5
20260504200431 16 96 0.0 0.0 0.00 0.03 0.03 95 1017.5
20260504195931 16 95 0.0 0.0 0.00 0.03 0.03 95 1017.4
20260504195431 16 94 0.0 0.0 0.00 0.03 0.03 95 1017.3
20260504194931 16 94 0.0 0.0 0.00 0.03 0.03 95 1017.3
20260504194431 16 95 0.0 0.0 0.00 0.03 0.03 95 1017.3
20260504193931 16 96 0.0 0.0 0.00 0.03 0.03 95 1017.2
20260504193431 16 94 0.0 0.0 0.00 0.03 0.03 95 1017.0
20260504192931 16 94 0.0 0.0 0.00 0.03 0.03 95 1017.0
20260504192431 16 94 0.0 0.0 0.00 0.03 0.03 95 1016.8
20260504191932 16 98 0.0 0.0 0.00 0.03 0.03 95 1016.8
20260504191431 16 98 0.0 0.0 0.03 0.03 0.03 95 1016.7
20260504190931 16 102 0.0 0.0 0.03 0.03 0.03 95 1016.8
20260504190431 16 105 0.0 0.0 0.03 0.03 0.03 95 1016.8
20260504185931 16 96 0.0 0.0 0.03 0.03 0.03 95 1016.8
20260504185431 16 94 0.0 0.0 0.03 0.03 0.03 95 1016.7
20260504184932 16 102 0.0 0.0 0.03 0.03 0.03 94 1016.6
20260504184431 16 92 0.0 0.0 0.03 0.03 0.03 94 1016.6
20260504183931 16 98 0.0 0.0 0.03 0.03 0.03 94 1016.6
20260504183431 17 96 0.0 0.0 0.03 0.03 0.03 95 1016.6
20260504182931 17 88 0.0 0.0 0.03 0.03 0.03 95 1016.6
20260504182431 16 92 0.0 0.0 0.03 0.03 0.03 95 1016.6
20260504181931 16 88 0.0 0.0 0.03 0.03 0.03 95 1016.6
20260504181431 16 98 0.0 0.0 0.00 0.00 0.00 94 1016.6
20260504180932 16 84 0.0 0.0 0.00 0.00 0.00 94 1016.6
20260504180432 16 83 0.0 0.0 0.00 0.00 0.00 94 1016.6
20260504175931 16 83 0.0 0.0 0.00 0.00 0.00 94 1016.7
20260504175431 16 82 0.0 0.0 0.00 0.00 0.00 94 1016.6
20260504174931 16 81 0.0 0.0 0.00 0.00 0.00 94 1016.6
20260504174432 16 81 0.0 0.0 0.00 0.00 0.00 94 1016.5
20260504173932 16 83 0.0 0.0 0.00 0.00 0.00 94 1016.5
20260504173432 16 81 0.0 0.0 0.00 0.00 0.00 94 1016.5
20260504172932 16 68 0.0 0.0 0.00 0.00 0.00 93 1016.6
20260504172432 16 62 0.0 0.0 0.00 0.00 0.00 93 1016.7
20260504171932 16 27 0.0 0.0 0.00 0.00 0.00 93 1016.7
20260504171432 16 28 0.0 0.0 0.00 0.00 0.00 94 1016.6
20260504170932 16 26 0.0 0.0 0.00 0.00 0.00 94 1016.6
20260504170432 16 25 0.0 0.0 0.00 0.00 0.00 92 1016.5
20260504160432 18 26 0.0 0.0 0.00 0.00 0.00 92 1016.9
20260504150932 18 32 0.0 3.2 0.00 0.00 0.00 92 1017.3
20260504150432 18 25 0.0 1.6 0.00 0.00 0.00 92 1017.3